Location: *
(51.4660°N, 0.3360°W)
Time: 23:15:16
(UTC+00:00)

Cosmos 2219 - Pass Details

Date: 19 September 2019
Orbit: 834 x 860 km, 71.1° (Epoch: 17 October)

Event Time Altitude Azimuth Distance (km) Brightness Sun altitude
Rises 18:48:49 0° 173° (S) 3,422 6.2 -7.2°
Reaches altitude 10° 18:51:32 10° 163° (SSE) 2,491 5.4 -7.6°
Maximum altitude 18:56:24 30° 105° (ESE) 1,512 4.0 -8.4°
Drops below altitude 10° 19:01:17 10° 46° (NE) 2,502 5.3 -9.1°
Sets 19:04:01 0° 36° (NE) 3,441 6.1 -9.5°
